Theta_e
319 318 318 318 319 319 319 319 320 320 320 321 321 322 321 321 322 324 326 328 326 327 327 327 328 326 327 329 331 333 335 336 338 338 340 342 340 340 339 339 339 340 340 339 337 336 334 332 329 328 327 333
317 318 318 316 318 318 318 318 318 319 319 320 321 321 320 321 322 323 325 326 326 325 325 325 326 324 326 328 331 332 332 333 335 336 336 338 339 338 339 338 339 338 338 336 335 333 332 330 328 327 326 331
318 317 317 317 317 317 317 317 317 318 319 319 319 319 319 321 322 323 323 327 325 323 324 324 324 323 325 327 329 329 329 331 332 334 335 335 335 336 336 336 337 336 336 336 333 331 330 328 326 325 326 330
316 317 317 318 317 316 317 317 317 318 316 317 317 316 317 318 320 321 321 325 321 322 322 323 322 322 324 326 327 327 327 329 330 331 332 333 334 335 336 335 335 333 334 334 331 330 328 325 324 327 328 330
316 315 316 316 316 317 316 316 316 316 314 314 313 313 314 315 316 316 317 319 318 320 318 321 321 320 322 325 326 325 326 327 328 329 329 330 330 330 331 331 330 330 330 329 329 329 327 323 327 328 329 330
314 312 314 312 311 312 312 312 313 311 310 311 309 311 310 310 311 312 315 317 317 317 317 319 320 320 322 324 324 324 325 327 325 327 327 327 327 325 326 328 329 329 328 326 327 325 323 324 328 328 326 323
310 309 309 309 308 309 310 309 308 308 308 307 306 306 306 307 308 310 313 315 315 315 317 318 318 318 320 321 322 321 324 323 322 323 323 323 323 321 320 322 325 328 328 326 324 321 323 322 316 314 315 315
307 307 307 306 305 305 306 306 306 306 306 305 304 304 304 305 306 309 311 313 313 313 315 316 316 316 317 318 319 318 320 320 320 319 319 319 319 317 315 315 315 319 319 317 315 314 313 311 309 308 308 308
305 306 305 304 304 304 304 304 304 304 304 303 303 302 302 302 304 307 308 309 310 311 313 314 314 314 315 316 317 316 316 316 317 316 315 315 315 315 314 313 312 312 312 311 310 309 308 307 305 305 304 305
305 305 303 302 303 303 302 303 302 302 301 301 301 301 300 300 302 303 304 306 307 308 311 312 312 313 314 314 314 315 314 314 315 314 313 312 312 312 312 312 311 310 309 308 307 306 305 304 302 302 302 302
303 302 302 302 302 301 300 300 299 299 299 300 300 300 299 298 299 300 301 303 304 306 309 309 310 311 312 312 312 313 313 312 312 312 311 311 310 309 309 309 308 307 306 306 305 303 302 302 300 300 299 299
302 301 301 301 301 300 299 299 298 298 299 299 298 298 297 298 298 298 298 299 300 303 306 308 309 310 310 311 311 312 312 311 311 310 309 309 308 307 306 305 305 303 301 300 300 299 298 297 297 297 297 297
301 300 300 299 299 298 299 297 297 297 297 297 296 296 296 296 296 296 297 297 298 300 303 306 307 307 308 309 309 310 310 310 310 308 307 307 306 305 303 302 302 301 299 298 298 297 296 295 295 295 294 294
299 298 298 298 297 297 297 296 296 296 295 295 295 295 295 295 295 295 295 295 297 298 299 304 305 306 305 306 307 308 309 309 309 308 307 306 306 304 301 299 299 299 297 296 296 295 294 294 294 293 293 293
298 298 297 297 296 296 295 296 295 294 294 293 293 294 294 294 294 294 294 294 295 297 299 301 302 302 303 304 306 307 307 309 308 308 306 305 304 304 301 299 298 297 295 294 294 294 293 292 292 292 292 292
297 297 296 296 295 295 295 295 294 293 293 292 292 293 293 293 293 294 293 293 294 295 298 299 300 300 300 301 303 306 306 306 308 307 307 305 303 303 301 299 298 296 295 293 293 293 292 292 291 291 291 290
297 296 296 295 295 294 295 293 293 292 292 292 292 292 292 292 293 293 293 293 294 295 296 297 299 299 300 300 301 304 305 305 305 306 305 305 302 301 299 298 297 297 294 293 292 292 292 291 291 291 290 290
296 296 296 295 295 295 294 292 292 291 291 291 291 291 292 291 292 292 293 293 293 295 295 296 299 298 299 300 300 302 303 302 302 303 302 300 302 300 298 296 296 295 293 293 292 291 291 291 290 290 290 289
296 296 295 295 295 294 293 292 290 290 291 290 290 290 290 291 291 291 291 292 292 293 294 295 297 297 297 299 300 299 300 299 300 300 300 298 297 300 299 297 295 294 293 292 291 291 291 290 290 289 289 289
296 296 295 294 296 294 293 291 290 289 290 290 289 289 289 289 290 289 289 290 291 291 291 293 294 295 296 297 298 298 298 298 297 298 299 298 297 295 297 297 295 294 293 292 291 291 291 290 289 289 288 288
296 295 294 294 293 293 291 291 289 289 289 289 288 288 287 288 289 288 288 289 290 289 290 291 292 293 294 296 297 296 296 296 296 296 297 297 297 296 294 294 294 293 293 292 291 290 290 290 290 288 288 288
295 294 294 295 295 293 291 290 290 289 288 287 287 287 286 287 287 287 287 288 288 288 289 290 290 293 293 294 295 294 294 294 294 295 296 295 296 296 294 293 292 292 292 293 292 291 289 289 289 288 287 287
295 295 295 295 295 293 291 290 289 288 287 286 286 286 286 286 286 286 286 286 287 286 287 288 289 290 291 292 293 293 292 292 292 292 293 294 295 296 295 293 293 293 293 293 291 290 289 288 287 286 286 287
292 293 292 291 291 290 289 289 288 288 286 286 285 285 285 284 284 285 284 284 285 285 285 286 287 288 289 290 292 292 291 290 290 290 290 291 293 294 294 294 293 292 291 291 292 287 287 286 286 286 286 286
290 289 289 290 289 288 288 288 288 287 286 286 284 284 284 283 283 283 283 283 284 284 284 284 285 286 286 287 288 289 289 290 289 290 289 290 291 291 292 291 292 291 291 291 288 288 287 285 286 287 286 285
289 289 288 288 287 288 286 286 285 284 285 285 285 283 282 282 282 282 281 282 282 283 282 282 282 283 284 285 285 286 287 287 288 287 287 288 288 290 291 290 291 290 290 285 284 283 284 284 285 286 286 285
288 288 289 288 287 287 287 288 287 286 286 285 283 282 281 281 280 280 279 279 280 281 280 280 280 281 282 283 284 284 284 284 284 284 285 285 286 286 288 289 291 289 290 284 284 285 286 282 281 285 284 284
289 289 289 289 289 289 287 286 288 287 286 284 283 281 281 280 279 279 278 278 278 278 278 278 278 279 280 281 283 283 282 281 282 282 282 283 284 286 284 286 287 290 288 286 284 281 281 279 284 284 282 284
288 289 289 289 288 288 287 286 285 283 282 282 283 281 280 279 279 278 277 277 277 277 278 278 278 278 279 279 281 281 280 280 280 281 281 282 282 283 284 283 286 287 288 287 287 283 282 282 284 283 283 284
287 287 286 286 285 284 284 281 281 280 280 280 279 279 280 280 279 278 277 276 276 276 277 277 277 278 278 278 279 280 279 279 280 280 279 280 280 280 283 284 284 285 286 286 286 286 285 285 282 282 284 284
285 286 285 285 284 284 282 280 281 281 281 280 280 280 279 279 279 279 277 276 275 275 277 277 277 277 277 277 278 279 278 278 279 279 279 280 279 278 281 283 282 282 283 285 285 285 286 286 285 285 284 281
Wind_Speed
8 8 9 9 10 12 13 14 14 14 15 15 16 16 16 16 15 14 13 11 12 12 15 15 14 14 15 16 16 16 15 14 13 14 16 18 17 17 16 15 15 14 13 11 9 9 9 11 10 9 8 5
7 9 7 5 6 8 11 11 15 14 14 14 15 14 15 16 15 14 14 10 9 12 14 14 12 11 14 15 16 17 17 16 14 13 12 13 14 16 16 17 16 11 11 12 10 9 10 10 9 8 7 4
1 7 9 2 4 4 6 8 12 12 12 12 13 15 16 16 16 12 13 7 7 13 14 13 10 9 12 14 16 16 17 16 16 14 13 11 10 10 9 13 14 11 11 13 11 9 10 10 8 7 4 3
4 5 8 1 4 2 7 4 11 10 12 12 14 16 17 18 12 11 8 9 8 10 12 12 9 8 9 12 14 16 16 15 16 17 16 15 13 12 11 9 9 10 14 12 7 10 10 10 7 3 3 2
4 6 9 7 11 9 10 10 11 11 12 11 12 14 15 15 10 10 9 6 6 8 8 12 10 7 9 10 14 18 18 12 15 15 17 17 18 16 12 8 11 9 6 6 9 12 13 4 3 3 2 2
5 7 8 7 8 7 8 10 11 8 8 9 8 13 11 9 9 9 9 7 10 8 9 8 12 7 9 12 18 19 18 12 16 17 17 17 17 19 17 11 6 4 6 7 9 10 5 4 1 4 7 7
6 7 6 7 8 7 9 9 8 8 8 7 9 9 9 8 8 9 9 9 12 12 12 12 16 16 12 13 14 19 16 18 19 19 19 18 18 18 19 12 9 6 5 3 7 8 7 7 9 8 8 8
5 5 6 6 6 7 7 7 7 8 9 8 9 9 8 8 9 9 9 11 14 13 9 9 13 15 14 12 11 15 10 13 13 17 17 17 15 11 9 8 9 9 8 7 7 8 8 7 8 8 8 7
5 6 6 6 6 6 7 6 7 7 8 8 9 9 9 9 8 8 8 9 9 9 9 9 8 8 8 9 8 11 8 8 8 9 9 9 9 7 8 9 9 9 8 8 8 8 8 9 9 8 8 8
6 7 5 6 7 7 7 7 8 8 7 8 9 9 10 9 9 9 8 8 9 9 8 8 8 8 8 9 9 8 7 7 7 7 7 8 8 8 8 8 8 8 8 7 7 7 8 8 9 8 8 8
5 6 5 5 6 7 7 7 8 7 7 8 9 9 10 9 9 8 8 8 9 8 8 8 8 8 8 7 8 9 8 8 7 7 7 7 7 7 8 8 8 9 9 8 8 8 9 9 9 8 8 8
6 6 6 6 6 7 7 7 7 7 6 7 9 10 9 8 8 8 8 9 9 9 7 7 8 8 9 8 7 7 7 8 7 7 7 7 7 8 8 8 8 9 9 8 8 8 8 8 8 8 8 7
5 6 6 6 7 7 7 6 6 7 6 7 7 8 9 9 9 8 8 9 9 8 8 7 7 7 8 9 9 7 6 7 7 6 6 7 6 6 7 7 8 7 8 7 8 8 8 7 7 7 6 5
5 5 5 6 6 6 6 6 6 7 7 7 7 7 9 9 8 7 8 8 8 8 9 8 8 7 7 8 8 8 8 6 6 6 6 7 6 6 7 7 7 6 7 8 8 8 7 7 7 7 7 8
5 5 5 5 5 5 5 6 5 6 6 6 7 7 8 8 8 8 8 8 8 7 7 8 8 8 8 8 8 8 9 7 6 5 5 6 7 6 6 6 6 6 6 6 6 6 7 7 7 7 6 6
4 4 5 4 4 5 5 5 5 5 5 5 6 7 8 8 8 8 8 9 8 8 7 7 6 7 8 8 9 7 8 9 7 6 5 5 7 7 7 6 6 7 6 6 6 6 7 6 6 5 5 5
4 4 4 4 4 4 4 4 4 5 5 5 5 6 7 8 8 8 8 8 9 8 7 8 6 7 7 7 8 8 8 9 9 7 7 7 4 6 6 7 7 5 6 6 6 6 6 5 5 5 4 5
3 3 3 4 4 4 5 5 4 5 4 5 5 6 7 8 7 8 8 8 9 7 7 8 6 8 7 7 9 9 9 9 8 7 8 9 7 4 6 6 6 5 6 5 5 5 5 5 5 4 5 5
3 3 3 4 4 4 4 4 4 4 5 5 6 6 6 8 7 8 8 9 8 8 8 7 7 8 8 8 8 8 8 8 8 8 7 8 8 7 4 5 5 5 5 4 5 4 4 4 4 4 5 4
3 2 1 2 2 2 3 4 4 5 6 6 6 6 6 8 7 9 9 8 8 7 8 7 7 7 8 9 7 7 7 7 8 7 7 7 7 7 7 6 5 4 4 4 4 3 3 3 3 3 3 4
1 3 2 1 0 2 4 5 5 6 6 6 6 6 6 8 7 8 9 9 9 7 8 6 7 5 9 8 7 8 8 8 8 7 6 6 6 6 5 6 6 5 4 4 3 3 2 3 3 4 5 3
0 1 2 0 0 4 4 4 6 6 6 6 6 6 7 8 7 8 9 9 9 8 8 7 8 7 9 7 7 7 8 7 8 8 7 6 6 5 5 5 6 6 4 3 2 1 2 3 4 4 3 4
2 2 1 4 4 4 5 4 5 6 6 6 6 7 7 8 7 8 8 9 8 8 8 8 8 7 8 6 6 6 7 8 9 9 9 8 5 5 4 5 5 5 6 5 2 0 3 3 3 3 2 2
5 6 5 5 4 4 5 4 5 6 5 5 6 7 7 8 8 8 8 9 8 8 8 8 8 8 9 8 7 7 7 8 8 10 10 10 8 5 4 5 5 6 6 6 4 2 3 2 3 2 2 3
4 5 5 4 4 3 5 4 5 5 4 5 6 7 8 8 8 8 9 9 9 9 9 8 8 8 8 9 9 7 7 9 9 9 8 8 7 9 5 5 6 9 8 4 6 1 3 3 2 2 3 4
4 3 2 1 3 3 4 4 5 3 4 4 5 7 8 8 8 9 9 9 9 8 10 10 9 9 9 9 8 7 7 8 9 10 10 8 8 8 7 4 7 7 7 5 5 5 2 2 3 1 4 4
3 3 3 3 2 4 1 3 2 3 5 5 5 6 8 8 8 9 9 10 9 8 9 9 9 9 8 9 8 8 8 8 9 9 11 10 8 8 8 6 4 6 7 4 7 4 1 1 1 0 2 3
3 1 0 1 0 0 2 0 1 4 6 6 6 6 7 7 8 8 8 9 9 7 8 8 8 8 8 9 8 8 8 8 9 9 9 9 9 7 6 6 4 6 7 5 6 5 1 2 1 1 2 7
6 4 1 1 2 1 1 2 7 6 6 6 6 6 6 7 7 7 8 9 9 9 8 8 8 8 8 9 8 8 8 8 8 9 8 10 9 9 6 7 4 6 6 6 6 3 3 4 2 3 4 7
6 4 4 6 6 5 3 5 6 6 6 6 7 7 5 5 7 7 7 8 9 9 9 9 10 9 8 8 8 7 7 7 7 9 10 9 8 9 8 6 6 5 5 3 9 6 2 0 2 5 5 4
6 5 5 6 5 5 5 4 4 4 4 5 5 5 6 5 4 6 7 8 8 9 9 9 9 9 7 7 7 6 6 7 7 6 7 7 7 7 7 7 5 7 6 5 6 8 7 4 1 0 3 3
Wind_Direction
67 48 26 1 3 9 4 2 358 353 349 346 341 336 332 329 321 317 313 327 344 348 345 339 344 342 339 334 330 327 326 322 320 330 318 276 262 264 266 268 264 256 253 254 237 226 214 211 212 208 204 233
73 38 17 6 341 11 6 2 355 347 343 339 334 336 328 321 315 307 305 307 352 358 344 336 335 338 338 340 338 338 337 332 331 330 334 327 293 275 270 262 259 265 270 260 248 229 223 218 214 210 206 232
62 50 349 349 296 5 4 1 349 343 339 341 347 349 334 321 309 295 292 275 11 357 339 324 327 332 341 345 347 347 340 337 337 336 336 325 317 311 313 309 284 271 265 264 270 263 237 223 207 209 205 220
345 10 336 359 243 226 9 12 358 347 1 358 355 350 339 330 335 344 334 337 20 350 328 317 315 326 332 341 349 349 348 346 348 349 344 339 329 316 303 292 264 242 252 259 259 259 252 231 203 180 207 226
334 11 341 12 10 357 3 23 3 0 6 8 358 350 343 342 355 348 335 337 2 348 319 314 318 331 321 343 353 352 348 355 4 356 358 355 352 344 314 289 270 254 252 255 279 289 273 212 138 189 201 288
9 4 343 19 10 352 1 14 6 2 5 14 1 352 346 351 348 339 323 343 353 338 326 330 344 322 339 3 1 358 350 6 11 5 5 5 4 6 354 319 304 271 241 238 233 238 255 145 144 58 47 45
27 354 353 16 9 351 9 4 2 4 1 14 4 357 348 349 343 335 326 355 354 342 337 358 352 350 355 14 4 360 357 5 10 5 8 12 11 11 9 11 5 358 1 13 30 38 44 33 41 41 39 47
23 356 10 16 7 350 12 358 359 5 3 6 0 0 353 347 339 341 344 355 352 342 349 358 357 348 346 0 13 1 0 6 5 6 6 6 17 17 17 16 12 13 31 30 30 37 43 48 48 45 45 49
16 6 17 13 8 358 12 349 3 6 0 2 358 2 357 345 337 347 352 355 353 351 348 356 354 345 350 352 10 3 8 359 7 10 6 358 9 24 20 23 22 19 30 34 32 38 39 44 42 47 45 45
8 13 15 14 11 9 5 357 8 5 1 357 360 4 357 346 348 351 352 355 354 351 349 352 350 350 358 354 2 357 9 0 7 17 11 3 10 16 19 26 30 29 32 40 42 44 47 48 43 41 41 40
16 12 12 16 14 16 5 3 4 4 356 358 359 4 359 353 347 346 347 352 352 351 350 352 355 353 353 358 0 355 6 3 3 20 11 8 17 17 16 23 31 28 30 30 40 41 42 43 46 41 39 38
20 11 14 9 13 18 4 4 3 356 358 356 3 4 358 350 348 347 346 351 349 345 347 353 359 353 354 356 358 4 6 357 1 18 14 7 25 21 19 19 33 35 31 28 33 42 40 41 41 41 38 35
22 12 15 10 18 13 4 7 2 360 357 0 1 360 2 354 353 349 354 351 346 338 342 345 9 1 1 357 351 354 6 360 357 17 15 14 19 33 25 25 26 33 35 35 36 39 42 41 41 42 41 36
25 12 16 15 15 11 3 9 3 1 6 1 358 2 4 356 354 350 350 348 345 342 338 345 5 6 7 359 348 349 354 359 357 13 19 14 14 31 38 34 28 34 35 33 34 35 40 38 35 36 34 29
21 18 19 22 16 12 4 358 5 7 11 1 0 1 3 354 356 349 353 350 343 336 341 353 2 7 4 359 351 348 354 344 8 7 33 20 10 23 37 37 32 37 43 40 36 38 44 39 36 36 33 37
25 21 19 15 22 20 359 2 9 8 8 1 3 356 6 357 353 356 356 348 345 333 348 355 344 21 7 358 345 350 358 347 3 9 14 42 28 20 31 30 33 34 35 35 34 31 41 44 46 42 40 41
28 25 16 11 14 26 357 9 8 12 359 5 359 360 10 358 352 360 354 346 344 336 347 345 339 21 13 358 345 348 2 0 3 4 13 7 46 38 32 28 26 31 36 35 30 31 34 37 44 44 50 42
32 19 16 30 8 17 359 8 14 12 359 3 359 4 6 358 357 1 355 347 343 338 347 334 4 15 9 4 354 358 9 9 4 2 19 6 355 46 43 34 25 25 31 32 34 35 32 37 36 33 33 39
9 36 22 31 9 14 8 3 15 13 4 8 7 4 6 360 359 4 355 349 347 340 346 348 6 17 6 360 7 6 16 9 5 3 23 16 5 355 46 47 37 35 35 25 27 32 36 37 44 35 38 36
344 2 58 77 29 349 22 16 12 20 16 17 16 9 6 357 1 5 354 352 352 351 344 358 2 18 1 357 11 9 11 15 10 7 10 24 18 3 10 23 33 31 26 24 27 26 36 52 51 54 64 47
1 346 347 89 155 43 62 38 17 24 21 20 21 7 7 0 4 3 355 353 357 354 347 353 352 13 13 355 13 14 11 17 10 3 9 10 21 23 12 13 13 13 22 4 18 27 37 47 37 49 41 47
273 263 289 356 121 83 59 55 39 26 25 24 21 8 7 4 4 6 358 357 2 355 346 350 355 11 12 0 14 16 13 13 11 3 359 5 9 25 24 18 10 357 349 353 331 46 73 38 51 38 49 47
292 240 200 46 18 61 55 44 50 44 26 32 18 13 8 6 7 7 4 358 1 4 351 354 360 3 4 3 11 22 15 15 11 4 357 353 4 10 45 26 2 350 329 308 271 70 69 84 67 107 102 95
5 5 20 43 4 22 39 33 48 40 42 28 27 18 11 8 9 8 6 2 1 9 0 356 356 1 1 356 5 22 18 18 15 10 358 352 345 1 29 32 1 344 333 302 279 156 112 114 115 102 105 91
35 24 5 17 25 21 31 28 40 38 36 29 45 27 19 12 9 8 9 6 1 10 6 1 357 2 2 2 358 7 23 19 15 12 6 353 355 350 8 20 16 356 338 337 350 354 121 79 61 68 90 67
36 52 32 348 12 349 57 29 35 32 34 35 44 42 28 16 11 13 12 7 2 8 13 7 3 2 1 359 359 357 14 24 17 12 9 0 357 359 355 27 24 6 357 5 358 325 332 57 1 356 59 64
38 17 39 36 360 360 19 81 110 94 69 51 39 53 42 24 15 16 15 11 5 9 15 12 5 0 355 353 2 3 13 13 22 14 10 2 6 356 355 357 13 24 28 346 314 261 232 250 89 266 56 72
351 122 322 50 314 281 53 227 57 66 52 43 37 36 48 38 23 20 20 14 9 9 12 17 10 358 355 351 1 11 14 11 18 16 8 0 355 4 360 357 338 33 22 32 349 9 4 255 265 266 42 2
334 354 310 197 203 217 276 23 38 30 17 25 26 24 25 40 29 22 23 18 12 12 12 16 14 6 357 350 359 16 18 16 13 15 10 2 357 357 5 353 333 360 19 24 40 37 338 345 11 48 338 341
338 22 23 11 19 14 14 39 30 19 12 8 17 16 0 34 38 25 25 22 15 13 14 15 14 9 1 357 356 21 20 13 12 15 13 4 359 350 347 0 344 356 4 26 34 19 48 49 301 324 322 303
357 27 24 22 23 32 34 47 47 39 28 33 24 7 8 6 36 37 31 26 21 13 12 17 13 7 359 1 351 19 16 18 13 7 10 352 8 356 340 8 10 357 2 342 34 2 345 5 355 145 340 347